EST,Max TemperatureF,Mean TemperatureF,Min TemperatureF,Max Dew PointF,MeanDew PointF,Min DewpointF,Max Humidity, Mean Humidity, Min Humidity, Max Sea Level PressureIn, Mean Sea Level PressureIn, Min Sea Level PressureIn, Max VisibilityMiles, Mean VisibilityMiles, Min VisibilityMiles, Max Wind SpeedMPH, Mean Wind SpeedMPH, Max Gust SpeedMPH,PrecipitationIn, CloudCover, Events, WindDirDegrees
2013-12-1,80,72,64,68,65,61,97,82,67,30.11,30.04,29.97,10,10,5,12,4,23,0.21,5,Rain,357
2013-12-2,77,70,63,66,63,56,93,73,53,29.96,29.91,29.85,10,8,0,13,5,17,T,7,Rain,297
2013-12-3,80,71,61,66,61,57,93,74,54,30.02,29.97,29.92,10,10,10,14,4,20,0.00,5,,155
2013-12-4,82,75,68,67,65,64,84,71,58,30.11,30.06,30.01,10,10,10,13,5,18,0.00,3,,134
2013-12-5,83,77,70,70,68,66,90,78,65,30.18,30.12,30.09,10,10,10,18,9,26,0.00,4,,110
2013-12-6,83,78,73,70,68,64,82,70,58,30.19,30.15,30.09,10,10,10,20,11,26,0.00,2,,116
2013-12-7,83,77,70,71,68,66,87,73,58,30.22,30.18,30.15,10,10,5,16,7,31,0.13,3,Rain,85
2013-12-8,83,78,72,71,68,66,87,73,58,30.22,30.16,30.13,10,10,10,20,12,24,0.06,5,Rain,102
2013-12-9,83,79,75,70,67,65,82,69,55,30.21,30.16,30.12,10,10,10,21,11,25,T,4,,112
2013-12-10,83,78,73,71,70,69,87,76,65,30.17,30.14,30.10,10,10,9,14,6,18,0.00,3,,118
2013-12-11,84,78,72,74,71,68,93,79,65,30.20,30.16,30.13,10,10,8,17,7,21,0.04,5,Rain,77
2013-12-12,82,75,67,71,66,58,93,77,61,30.22,30.17,30.13,10,10,10,16,5,23,0.00,5,,358
2013-12-13,79,72,65,68,64,59,84,73,62,30.19,30.14,30.10,10,10,10,22,11,25,0.01,4,,70
2013-12-14,82,78,74,72,70,68,87,76,65,30.11,30.05,30.01,10,10,10,20,11,26,0.01,4,,128
2013-12-15,86,80,74,74,71,69,93,77,61,30.07,30.01,29.95,10,10,10,17,8,21,0.00,5,,234
2013-12-16,75,70,64,70,60,56,87,74,61,30.17,30.11,30.05,10,10,10,14,7,20,0.00,7,,339
2013-12-17,79,70,61,64,59,57,90,72,54,30.19,30.14,30.10,10,10,10,16,7,25,0.00,4,,12
2013-12-18,78,71,63,59,57,52,84,65,45,30.24,30.19,30.15,10,10,10,14,7,22,0.00,1,,2
2013-12-19,79,70,60,64,59,55,90,70,50,30.24,30.19,30.15,10,10,10,21,9,25,0.00,2,,61
2013-12-20,83,77,71,70,67,65,84,71,58,30.19,30.15,30.12,10,10,10,23,14,29,0.00,5,,98
2013-12-21,83,79,75,72,70,69,82,74,65,30.14,30.11,30.07,10,10,10,22,13,29,0.00,3,,116
2013-12-22,83,80,76,72,71,69,82,74,65,30.17,30.13,30.09,10,10,9,20,13,28,0.00,5,,120
2013-12-23,83,78,73,72,71,70,87,76,65,30.19,30.16,30.13,10,10,9,18,9,26,0.00,4,,135
2013-12-24,86,77,68,73,66,59,100,76,51,30.19,30.14,30.08,10,9,7,15,5,30,0.00,4,,337
2013-12-25,79,74,68,68,65,61,90,77,64,30.17,30.12,30.09,10,10,5,18,10,25,0.09,6,Rain,45
2013-12-26,75,73,70,73,70,68,100,94,87,30.17,30.12,30.08,10,7,1,14,4,23,3.75,7,Rain-Thunderstorm,31
2013-12-27,80,74,68,72,70,68,100,85,69,30.19,30.14,30.10,10,9,1,16,7,25,0.25,7,Rain,45
2013-12-28,80,76,72,72,70,69,93,84,74,30.18,30.10,30.04,10,10,10,22,13,28,0.12,7,Rain,96
2013-12-29,80,77,74,74,73,71,100,90,79,30.06,30.01,29.96,10,10,10,15,8,24,T,7,Rain,172
2013-12-30,81,77,72,73,70,66,100,85,69,30.14,30.07,30.00,10,9,1,9,4,16,0.00,7,,313
2013-12-31,77,72,67,68,65,62,84,74,64,30.23,30.17,30.12,10,10,10,18,10,24,T,7,Rain,27